User: anonymous   Login
Location: Unspecified
(0.0000°N, 0.0000°E)
Time: 03:07:29
(UTC+02:00)
Language:

Atlas Centaur 2 - Orbit

View from above orbital plane
View from above orbital plane
View from above satellite
View from above satellite

Ground track
Ground track

The orbit data is extracted from the following two-line orbital elements,

1 00694U 63047A   17293.11746087  .00000740  00000-0  86671-4 0  9998
2 00694  30.3551 197.5033 0587347  35.4240 328.3955 14.02178109700261
Epoch (UTC): 20 October 2017 02:49:08
Eccentricity: 0.0587347
inclination: 30.3551°
perigee height: 459 km
apogee height: 1313 km
right ascension of ascending node: 197.5033°
argument of perigee: 35.4240°
revolutions per day: 14.02178109
mean anomaly at epoch: 328.3955°
orbit number at epoch: 70026

The dashed part of the orbit path shows where the satellite is in the earth's shadow,  

DLR